Showing default

GEESAT 6-02, 65714

Orbit data source: Space-Track

GEESAT 6-02, 65714 is a payload satellite owned by GeeSpace (CN) in LEO that was launched on Wed, 24 Sep 2025 UTC via a JIELONG-3 launch vehicle from the Yellow Sea Launch Area, China (YSLA). Payload-class satellites include a variety of spacecraft equipped with specific instruments for various scientific and technological missions. These include communications satellites like Starlink; space stations such as the ISS; scientific satellites like the Hubble; Earth observation satellites from companies like Planet Labs, Umbra, and HawkEye 360; GPS; miniature CubeSats for education and research; and military/defense satellites.

Loading next visibility...
Identifier
65714, 2025-214C
Orbit
LEO
Country
Flag of CNCN / PRC
Related business
Manufacturer
GWCG
Mission
Operational Commercial Navigation
Bus & Motor
GPS100, Unknown motor
Mass
130 kg wet, 130 kg dry
Launch date (UTC)
2025-09-24 (9 months ago)
Launch vehicle
JIELONG-3
Launch site
Yellow Sea Launch Area, China (YSLA)
Object type
Payload
Rocket body
Debris
Shape & HBR
Box + 2 Pan, 14.5 m
Radar Cross Section
0.833 m², Large (>1 m²)

Expand to show TLE details & history
Last TLE update: 1 day ago

TLE from 1 day ago
0 GEESAT 6-02
1 65714U 25214C   26170.61467412  .00001241  00000-0  17705-3 0  9995
2 65714  49.9858 297.2641 0010381 223.2024 136.8100 14.83374636 39867
Epoch: 2026-06-19T14:45Z
TLE epoch observation values (Epoch: 2026-06-19T14:45:07.843Z)
Latitude
-0.00007°
Longitude
168.14024°
Altitude
624.534 km
Speed
7.545 km/s
True Right ascension
19h 49m 03s
True Declination
0° 00' 00"
Sunlit
Object was in full shadow at epoch
Visualization orbit readout
Latitude
Unknown
Longitude
Unknown
Altitude
Unknown
Speed
Unknown
Apparent Right ascension
Unknown
Apparent Declination
Unknown
Sunlit
N/A
Visualization observer readout
Local Sidereal Time
07:13:11
Azimuth
Unknown
Elevation
Unknown
Doppler factor
Unknown
Orbital elements
Apogee altitude
626.717 km
Perigee altitude
612.189 km
Semi-major axis
6,997.59 km
Eccentricity
0.00104
Inclination
49.9858°
RAAN
297.2641°
Arg. of periapsis
223.2024°
True anomaly
136.89134°
Mean anomaly
136.81°
Eccentric anomaly
136.85068°
Mean motion
3.70784 °/min
Orbital period
97.09 mins
BSTAR
0.00017705
Loading maneuver chart data...
Computing Atmospheric mass density...
Loading historical data...
Loading historical data...
Loading historical data...
Loading historical data...
Loading historical data...
Loading historical data...
Loading historical data...

Documentation

Showing up to 5 results
|